[[{"header":{"parameterUnit":"m.s-1","parameterCategory":1,"la1":30.2991,"la2":30.254,"lo1":-89.0895,"lo2":-89.0444,"dy":0.0017,"dx":0.0017,"nx":28,"ny":28,"refTime":"2023-08-08T21:00:00:Z","depth":0,"parameterNumber":2,"parameterNumberName":"U-component_of_WINDS"},"data":[0,0,0,0,0,0,0,0,0,0,0,0,0,0,0,0,0,0,0,0,0,0,0,0,0,0,0,0,0,0,0,0,0,0,0,0,0,0,0,0,0,0,0,0,0,0,0,0,0,0,0,0,0,0,0,0,0,0,4.9916,4.9917,0,4.9968,4.9968,4.9969,4.9823,4.9818,4.9814,4.9809,4.9862,4.9867,4.9873,0,0,0,0,0,0,0,0,0,0,0,0,0,4.9691,4.9696,4.9916,4.9917,4.9918,4.9968,4.9968,4.9969,4.9824,4.9818,4.9813,4.9807,4.986,4.9867,4.9873,0,0,0,0,0,0,0,0,0,0,0,0,0,4.977,4.9697,4.9916,4.9851,4.9846,4.9967,4.9968,4.9969,4.9825,4.9818,4.9811,4.9805,4.9858,4.9866,4.9874,5.0061,0,0,4.99,4.9904,0,0,0,0,0,0,0,0,4.9766,4.9779,4.986,4.9856,4.985,4.9882,4.9908,5.0,4.9826,4.9833,4.9809,4.9802,4.9874,4.9881,4.9905,5.0064,5.0066,4.9901,4.9906,4.9909,4.9912,0,0,0,0,0,0,0,4.9761,4.9776,4.9936,4.9861,4.9855,4.9819,4.9823,4.9925,4.9891,4.9832,4.9821,4.9829,4.987,4.9897,4.9905,5.0067,4.99,4.9908,4.9913,4.9916,5.0379,5.0386,0,0,0,0,0,0,4.9764,4.9772,4.9935,4.9938,4.979,4.9828,4.9833,4.9878,4.9889,4.9884,4.9835,4.9822,4.9886,4.9896,4.9907,5.0124,4.9909,4.9917,4.9922,5.0372,5.0381,5.0388,0,0,0,0,0,0,4.9759,4.978,4.9933,4.9852,4.9869,4.9839,4.9892,4.9883,4.991,4.9892,4.9885,4.9869,4.9881,4.9895,5.0023,5.0124,4.9921,4.9929,5.0363,5.0374,5.0384,5.0562,0,0,0,0,0,0,4.9753,4.9779,4.985,4.9855,4.9874,5.005,4.9898,4.9889,4.9925,4.9909,4.9922,4.9918,4.9877,5.0012,5.0032,5.0132,4.9935,5.0354,5.0368,5.0381,5.0547,5.0578,5.0604,0,0,0,0,0,4.9746,4.9898,4.9854,4.9875,4.9962,5.0056,5.0066,5.0017,4.9934,5.0004,4.9992,4.9917,5.011,5.0026,5.0047,5.0151,5.0347,5.0364,5.038,5.0534,5.0572,5.0603,0,0,0,0,0,0,4.9906,4.9898,4.9849,5.0007,5.0034,5.0031,5.0118,5.0058,5.0108,5.0091,5.0027,5.0031,5.0171,5.0174,5.0081,5.0332,5.0214,5.0236,5.0324,5.036,5.0388,5.0383,4.9942,0,0,0,0,0,4.996,5.0037,5.0025,5.0166,5.0182,5.0149,5.0188,5.0147,5.0171,5.0181,5.0179,5.0205,5.0271,5.0316,5.0376,5.0548,5.0547,5.063,5.0658,5.0681,5.07,5.0788,5.0824,5.0442,5.0442,5.0442,0,0,5.0071,5.0076,5.0129,5.0199,5.0214,5.0294,5.0159,5.025,5.0308,5.0195,5.0315,5.0315,5.034,5.049,5.0557,5.0497,5.0806,5.0702,5.0721,5.0727,5.0809,5.0845,5.0877,5.0453,5.0451,5.0449,0,0,5.0315,5.0328,5.0445,5.0464,5.0489,5.0465,5.0494,5.0501,5.0496,5.0616,5.0532,5.0601,5.0717,5.0737,5.0763,5.1015,5.0947,5.1037,5.1184,5.1271,5.1301,5.1328,5.1415,5.1448,5.1056,5.1056,5.1056,0,5.045,5.0568,5.0514,5.061,5.0642,5.0544,5.0662,5.0682,5.0726,5.075,5.0684,5.0826,5.0836,5.0989,5.105,5.1075,5.1104,5.1034,5.1302,5.1328,5.1351,5.1434,5.1467,5.1067,5.1065,5.1064,5.1063,0,5.0732,5.0816,5.0908,5.0952,5.0995,5.1102,5.1063,5.1113,5.1069,5.1053,5.1176,5.1185,5.1244,5.1277,5.1236,5.1424,5.1386,5.1313,5.1192,5.1399,5.1475,5.1507,5.1082,5.1078,5.1075,5.1072,0,0,5.1076,5.1089,5.1124,5.1141,5.1162,5.1225,5.1328,5.1385,5.1428,5.1462,5.1545,5.1646,5.1576,5.1606,5.1566,5.1643,5.1839,5.1558,5.1558,5.1608,5.2044,5.2098,5.2136,5.1795,5.1801,5.1806,5.2041,0,5.1315,5.149,5.1443,5.1617,5.1692,5.16,5.1689,5.1711,5.1699,5.1761,5.1747,5.1818,5.1723,5.174,5.1812,5.18,5.1925,5.1783,5.187,5.1874,5.1864,5.2176,5.2234,5.2456,5.2071,5.2076,5.208,0,5.1615,5.166,5.1842,5.1849,5.1878,5.1959,5.2007,5.2068,5.2091,5.2077,5.211,5.2054,5.2154,5.2036,5.2171,5.2075,5.2108,5.2108,5.2116,5.2119,5.1987,5.2186,5.2526,5.2558,5.2127,5.2123,5.212,0,5.1845,5.1951,5.2073,5.2091,5.2103,5.2162,5.2169,5.2185,5.2223,5.2266,5.2289,5.2343,5.2373,5.2415,5.2375,5.2294,5.2517,5.2396,5.2506,5.2507,5.2555,5.2552,5.2902,5.2582,5.2581,5.2581,5.258,0,5.2114,5.2228,5.2175,5.225,5.2375,5.2321,5.2446,5.2443,5.2458,5.253,5.2455,5.2524,5.2468,5.2532,5.2502,5.2617,5.2632,5.2622,5.2612,5.2627,5.2628,5.2646,5.2628,5.2589,5.2587,5.2586,5.2584,0,5.239,5.236,5.2486,5.2487,5.249,5.2582,5.2582,5.2651,5.2633,5.2725,5.2744,5.2716,5.2788,5.2753,5.2827,5.2807,5.2955,5.2926,5.2948,5.2939,5.305,5.3039,5.3422,5.3468,5.3121,5.3124,5.3127,0,5.2562,5.2647,5.2658,5.27,5.2713,5.2783,5.2821,5.2771,5.2814,5.2846,5.291,5.2975,5.3024,5.3142,5.3129,5.3185,5.3155,5.3285,5.3162,5.3174,5.3153,5.3147,5.3155,5.3309,5.3313,5.3316,5.3319,0,5.287,5.285,5.2908,5.2961,5.3008,5.3047,5.3079,5.3118,5.3069,5.3121,5.3193,5.3231,5.3307,5.3371,5.342,5.3427,5.3365,5.3358,5.3386,5.3401,5.3408,5.3403,5.3012,5.3348,5.3345,5.3343,5.3342,5.334,5.3097,5.3168,5.3186,5.3252,5.3271,5.3303,5.3367,5.3358,5.3417,5.3475,5.3443,5.3526,5.3546,5.3605,5.362,5.3685,5.3633,5.3674,5.3684,5.3694,5.3708,5.3401,5.3694,5.3693,5.3692,5.3691,5.3691,0,5.3398,5.3405,5.3467,5.3514,5.3566,5.3505,5.3537,5.3584,5.3659,5.3683,5.3733,5.3815,5.3877,5.3869,5.3926,5.3979,5.3951,5.3995,5.3989,5.3991,5.3752,5.3721,5.4016,5.4016,5.4016,5.4016,5.4016,5.4016,5.356,5.3677,5.366,5.3785,5.3791,5.3872,5.3896,5.3925,5.3943,5.4038,5.409,5.4084,5.4095,5.4152,5.4206,5.4202,5.4225,5.4279,5.4264,5.4041,5.4008,5.3977,5.3947,5.4285,5.4285,5.4497,5.4499,5.45]},{"header":{"parameterUnit":"m.s-1","parameterCategory":1,"la1":30.2991,"la2":30.254,"lo1":-89.0895,"lo2":-89.0444,"dy":0.0017,"dx":0.0017,"nx":28,"ny":28,"refTime":"2023-08-08T21:00:00:Z","depth":0,"parameterNumber":3,"parameterNumberName":"V-component_of_WINDS"},"data":[0,0,0,0,0,0,0,0,0,0,0,0,0,0,0,0,0,0,0,0,0,0,0,0,0,0,0,0,0,0,0,0,0,0,0,0,0,0,0,0,0,0,0,0,0,0,0,0,0,0,0,0,0,0,0,0,0,0,4.249,4.2491,0,4.2589,4.259,4.2591,4.257,4.2569,4.2567,4.2565,4.2664,4.2668,4.2672,0,0,0,0,0,0,0,0,0,0,0,0,0,4.2279,4.2283,4.249,4.2491,4.2493,4.2589,4.259,4.2592,4.2571,4.2569,4.2566,4.2564,4.2662,4.2667,4.2672,0,0,0,0,0,0,0,0,0,0,0,0,0,4.2373,4.2284,4.249,4.2494,4.2495,4.2589,4.259,4.2592,4.2571,4.2568,4.2566,4.2563,4.266,4.2667,4.2673,4.2768,0,0,4.2693,4.2696,0,0,0,0,0,0,0,0,4.2368,4.2381,4.2492,4.2494,4.2495,4.2565,4.2552,4.2651,4.2572,4.2542,4.2565,4.2562,4.2633,4.2641,4.2666,4.2773,4.2777,4.2694,4.2698,4.27,4.2702,0,0,0,0,0,0,0,4.2361,4.2377,4.2529,4.2494,4.2496,4.2489,4.25,4.2571,4.2602,4.2545,4.2543,4.2556,4.2633,4.266,4.2668,4.2779,4.2693,4.2699,4.2703,4.2706,4.2966,4.2968,0,0,0,0,0,0,4.2354,4.2371,4.2526,4.2532,4.2424,4.2495,4.2507,4.2545,4.2601,4.2607,4.2558,4.2554,4.265,4.266,4.2671,4.2785,4.27,4.2706,4.271,4.2963,4.2966,4.297,0,0,0,0,0,0,4.2349,4.2368,4.2522,4.2452,4.2471,4.2502,4.2545,4.2549,4.2575,4.2611,4.2616,4.258,4.2648,4.2662,4.2744,4.2788,4.2709,4.2715,4.2959,4.2964,4.2968,4.3013,0,0,0,0,0,0,4.2343,4.2366,4.2404,4.2453,4.2475,4.2595,4.2548,4.2553,4.2587,4.2583,4.2632,4.2638,4.2647,4.2734,4.275,4.2795,4.272,4.2955,4.2961,4.2966,4.3008,4.3018,4.3028,0,0,0,0,0,4.2336,4.2413,4.2406,4.2425,4.2522,4.2597,4.261,4.2619,4.259,4.2628,4.265,4.2636,4.2781,4.2743,4.2761,4.2808,4.2953,4.2959,4.2966,4.3003,4.3016,4.3027,0,0,0,0,0,0,4.2368,4.2419,4.2412,4.2507,4.2548,4.2593,4.2641,4.2633,4.2682,4.2677,4.2686,4.2697,4.278,4.2802,4.2759,4.2902,4.2862,4.2873,4.2884,4.2897,4.2907,4.2899,4.2726,0,0,0,0,0,4.2386,4.2444,4.2485,4.2565,4.2585,4.261,4.2643,4.2647,4.2689,4.2706,4.2734,4.2775,4.2829,4.2864,4.2916,4.3011,4.302,4.3052,4.3062,4.307,4.3079,4.3128,4.3142,4.2992,4.2992,4.2992,0,0,4.2424,4.2459,4.2495,4.2572,4.2604,4.2662,4.2624,4.2688,4.273,4.2715,4.2794,4.2816,4.2861,4.2949,4.2989,4.2971,4.3122,4.3079,4.3085,4.3089,4.3137,4.3151,4.3163,4.2996,4.2995,4.2995,0,0,4.2523,4.2556,4.2625,4.2658,4.2707,4.2722,4.2739,4.2785,4.2799,4.2879,4.2868,4.2917,4.3011,4.3044,4.3072,4.3181,4.3169,4.3198,4.3249,4.3298,4.3309,4.332,4.3357,4.337,4.3206,4.3207,4.3207,0,4.2564,4.2652,4.2662,4.2726,4.2759,4.2748,4.2817,4.2848,4.2911,4.2933,4.2911,4.3027,4.3057,4.3152,4.3178,4.3202,4.322,4.3192,4.3307,4.3318,4.3328,4.3363,4.3377,4.3209,4.3209,4.3209,4.3209,0,4.2699,4.276,4.2809,4.2871,4.291,4.2976,4.2994,4.3031,4.3031,4.3048,4.3128,4.3163,4.3221,4.3244,4.3245,4.3338,4.3325,4.3305,4.3265,4.3345,4.3378,4.3392,4.3214,4.3213,4.3212,4.3211,0,0,4.2821,4.2886,4.2904,4.2931,4.2983,4.303,4.3094,4.3152,4.3183,4.3226,4.3279,4.3358,4.334,4.3372,4.3376,4.3419,4.35,4.3393,4.3394,4.3411,4.3602,4.3616,4.3632,4.3493,4.3495,4.3498,4.3598,0,4.2924,4.3039,4.3048,4.3151,4.3206,4.3195,4.3251,4.3289,4.3306,4.3354,4.3372,4.3427,4.34,4.3419,4.3461,4.3481,4.3538,4.3474,4.354,4.3543,4.3529,4.3649,4.3665,4.3758,4.3611,4.3613,4.3615,0,4.3059,4.3106,4.3214,4.3257,4.328,4.3331,4.3383,4.343,4.3471,4.348,4.3515,4.3513,4.3577,4.3536,4.3623,4.3579,4.3607,4.3621,4.3625,4.363,4.3583,4.3657,4.3788,4.3801,4.3636,4.3634,4.3633,0,4.3135,4.3226,4.3302,4.3325,4.3378,4.3413,4.3436,4.3474,4.3507,4.3552,4.3574,4.3625,4.3654,4.3693,4.3704,4.3673,4.379,4.375,4.3798,4.3798,4.3823,4.3821,4.3959,4.3843,4.3843,4.3842,4.3842,0,4.3248,4.3314,4.3336,4.3383,4.3456,4.3466,4.3537,4.3558,4.3592,4.3641,4.3636,4.3682,4.3694,4.3742,4.375,4.382,4.3834,4.3841,4.3843,4.3842,4.384,4.3859,4.3852,4.3846,4.3845,4.3845,4.3844,0,4.3345,4.3363,4.3445,4.3487,4.35,4.3551,4.3587,4.3631,4.3647,4.3709,4.3724,4.3748,4.3804,4.3819,4.3886,4.3891,4.3973,4.3969,4.396,4.3959,4.4006,4.4001,4.416,4.418,4.4052,4.4053,4.4054,0,4.3415,4.3466,4.3513,4.3546,4.3571,4.3624,4.3658,4.3668,4.3703,4.3753,4.379,4.3845,4.389,4.3979,4.4001,4.4052,4.4048,4.41,4.4055,4.4052,4.4047,4.4043,4.4047,4.4108,4.411,4.4111,4.4112,0,4.3537,4.3543,4.3592,4.3644,4.3685,4.3726,4.3765,4.3792,4.3808,4.3847,4.3904,4.3939,4.4007,4.406,4.4111,4.4133,4.4125,4.4126,4.4139,4.4138,4.4129,4.4133,4.3981,4.4122,4.4121,4.412,4.4119,4.4119,4.3622,4.3666,4.3706,4.376,4.3791,4.3827,4.387,4.3891,4.3939,4.3996,4.3999,4.406,4.4097,4.4165,4.4189,4.4236,4.4221,4.4241,4.4246,4.425,4.4253,4.4123,4.4246,4.4245,4.4245,4.4245,4.4245,0,4.3743,4.3767,4.3817,4.3872,4.3915,4.3904,4.3946,4.3982,4.4036,4.4072,4.4116,4.418,4.4232,4.4259,4.431,4.4342,4.4339,4.4355,4.4352,4.4357,4.4265,4.4248,4.4356,4.4356,4.4356,4.4356,4.4356,4.4356,4.381,4.3883,4.3893,4.398,4.4004,4.4065,4.409,4.4123,4.4152,4.4224,4.4267,4.4284,4.4316,4.4369,4.4415,4.4422,4.444,4.4457,4.4461,4.4375,4.4364,4.4353,4.4336,4.4462,4.4462,4.4549,4.455,4.455]}]]